Weather History for Creston, IA

Change the Weather History Date:

Thursday, October 17, 2013

  Actual Average Record
Temperature  
Mean Temperature 48 °F -  
Max Temperature 60 °F 63 °F 83 °F (1953)
Min Temperature 35 °F 39 °F 20 °F (1948)
Degree Days  
Heating Degree Days 18    
Moisture  
Dew Point 37 °F    
Average Humidity 73    
Maximum Humidity 100    
Minimum Humidity 36    
Precipitation  
Precipitation 0.00 in - - ()
Sea Level Pressure  
Sea Level Pressure 29.91 in    
Wind  
Wind Speed 8 mph (WSW)    
Max Wind Speed 22 mph    
Max Gust Speed 29 mph    
Visibility 9 miles    
Events      
Averages and records for this station are not official NWS values.
T = Trace of Precipitation, MM = Missing Value Source: NWS Daily Summary

Daily Weather History Graph

Daily Weather History Graph

Search for Another Location

Airport:

Trip Planner

Search our weather history database for the weather conditions in past years. The results will help you decide how hot, cold, wet, or windy it might be!

Date:

Astronomy

Oct. 17, 2013 Rise Set
Actual Time 7:31 AM CDT 6:33 PM CDT
Civil Twilight 7:03 AM CDT 7:01 PM CDT
Nautical Twilight 6:31 AM CDT 7:33 PM CDT
Astronomical Twilight 5:59 AM CDT 8:04 PM CDT
Moon 5:48 PM CDT (10/17) 6:03 AM CDT (10/17)
Length of Visible Light 11h 57m
Length of Day
11h 01m
Waxing Gibbous, 98% of the Moon is Illuminated
Oct 17
Waxing Gibbous
Oct 18
Full
Oct 26
Last Quarter
Nov 3
New
Nov 9
First Quarter

Hourly Weather History & Observations

Time (CDT) Temp. Windchill Dew Point Humidity Pressure Visibility Wind Dir Wind Speed Gust Speed Precip Events Conditions
12:15 AM 37.4 °F 33.8 °F 35.6 °F 93% 29.97 in 10.0 mi SSW 4.6 mph - N/A   Clear
12:35 AM 35.6 °F 31.7 °F 33.8 °F 93% 29.96 in 10.0 mi South 4.6 mph - N/A   Clear
12:55 AM 37.4 °F 32.8 °F 35.6 °F 93% 29.96 in 10.0 mi South 5.8 mph - N/A   Clear
1:15 AM 37.4 °F 33.8 °F 35.6 °F 93% 29.96 in 10.0 mi South 4.6 mph - N/A   Clear
1:35 AM 39.2 °F 37.0 °F 35.6 °F 87% 29.96 in 10.0 mi SSW 3.5 mph - N/A   Clear
1:55 AM 39.2 °F 37.0 °F 37.4 °F 93% 29.95 in 10.0 mi South 3.5 mph - N/A   Clear
2:15 AM 37.4 °F 34.9 °F 35.6 °F 93% 29.95 in 10.0 mi SSW 3.5 mph - N/A   Clear
2:35 AM 37.4 °F 33.8 °F 35.6 °F 93% 29.95 in 10.0 mi SSW 4.6 mph - N/A   Clear
2:55 AM 37.4 °F 34.9 °F 35.6 °F 93% 29.94 in 9.0 mi South 3.5 mph - N/A   Clear
3:15 AM 37.4 °F 33.8 °F 35.6 °F 93% 29.93 in 7.0 mi South 4.6 mph - N/A   Clear
3:35 AM 37.4 °F 32.8 °F 35.6 °F 93% 29.93 in 9.0 mi SSW 5.8 mph - N/A   Clear
3:55 AM 37.4 °F 33.8 °F 35.6 °F 93% 29.93 in 7.0 mi SSW 4.6 mph - N/A   Clear
4:15 AM 37.4 °F 34.9 °F 35.6 °F 93% 29.92 in 7.0 mi South 3.5 mph - N/A   Clear
4:35 AM 37.4 °F 33.8 °F 35.6 °F 93% 29.92 in 7.0 mi South 4.6 mph - N/A   Clear
4:55 AM 37.4 °F 33.8 °F 37.4 °F 100% 29.92 in 7.0 mi South 4.6 mph - N/A   Clear
5:15 AM 37.4 °F 33.8 °F 35.6 °F 93% 29.91 in 7.0 mi South 4.6 mph - N/A   Clear
5:35 AM 37.4 °F 33.8 °F 37.4 °F 100% 29.91 in 6.0 mi South 4.6 mph - N/A   Clear
5:55 AM 37.4 °F 33.8 °F 37.4 °F 100% 29.90 in 6.0 mi South 4.6 mph - N/A   Clear
6:15 AM 37.4 °F 33.8 °F 37.4 °F 100% 29.90 in 7.0 mi South 4.6 mph - N/A   Clear
6:35 AM 37.4 °F 32.8 °F 35.6 °F 93% 29.90 in 5.0 mi South 5.8 mph - N/A   Clear
6:55 AM 37.4 °F 32.8 °F 35.6 °F 93% 29.90 in 7.0 mi SSW 5.8 mph - N/A   Clear
7:15 AM 37.4 °F 32.8 °F 37.4 °F 100% 29.90 in 7.0 mi SSW 5.8 mph - N/A   Clear
7:35 AM 37.4 °F 33.8 °F 35.6 °F 93% 29.90 in 3.0 mi South 4.6 mph - N/A   Clear
7:55 AM 37.4 °F 32.8 °F 37.4 °F 100% 29.90 in 2.0 mi South 5.8 mph - N/A   Clear
8:35 AM 37.4 °F 32.8 °F 37.4 °F 100% 29.91 in 5.0 mi SSW 5.8 mph - N/A   Clear
8:55 AM 41.0 °F 35.8 °F 41.0 °F 100% 29.91 in 10.0 mi SSW 8.1 mph - N/A   Clear
9:15 AM 42.8 °F 38.0 °F 41.0 °F 93% 29.91 in 10.0 mi SW 8.1 mph - N/A   Clear
9:35 AM 44.6 °F 40.2 °F 39.2 °F 81% 29.91 in 10.0 mi SW 8.1 mph - N/A   Clear
9:55 AM 46.4 °F 43.5 °F 41.0 °F 81% 29.91 in 10.0 mi SW 5.8 mph - N/A   Clear
10:15 AM 48.2 °F - 41.0 °F 76% 29.91 in 10.0 mi WSW 8.1 mph - N/A   Clear
10:35 AM 50.0 °F - 41.0 °F 71% 29.91 in 10.0 mi WSW 9.2 mph - N/A   Clear
10:55 AM 51.8 °F - 39.2 °F 62% 29.91 in 10.0 mi WSW 8.1 mph - N/A   Clear
11:15 AM 53.6 °F - 39.2 °F 58% 29.91 in 10.0 mi SW 6.9 mph 15.0 mph N/A   Clear
11:35 AM 55.4 °F - 37.4 °F 51% 29.90 in 10.0 mi West 11.5 mph - N/A   Clear
11:55 AM 57.2 °F - 37.4 °F 48% 29.90 in 10.0 mi WSW 9.2 mph - N/A   Clear
12:15 PM 57.2 °F - 35.6 °F 44% 29.90 in 10.0 mi West 12.7 mph - N/A   Clear
12:35 PM 59.0 °F - 37.4 °F 45% 29.89 in 10.0 mi West 13.8 mph 20.7 mph N/A   Clear
12:55 PM 59.0 °F - 37.4 °F 45% 29.88 in 10.0 mi West 11.5 mph 19.6 mph N/A   Clear
1:15 PM 60.8 °F - 37.4 °F 42% 29.87 in 10.0 mi WSW 11.5 mph 20.7 mph N/A   Clear
1:55 PM 60.8 °F - 37.4 °F 42% 29.86 in 10.0 mi West 16.1 mph 21.9 mph N/A   Unknown
2:15 PM 60.8 °F - 33.8 °F 36% 29.86 in 10.0 mi West 17.3 mph - N/A   Clear
2:35 PM 60.8 °F - 33.8 °F 36% 29.86 in 10.0 mi West 15.0 mph 23.0 mph N/A   Clear
2:55 PM 60.8 °F - 33.8 °F 36% 29.86 in 10.0 mi West 16.1 mph 24.2 mph N/A   Clear
3:15 PM 60.8 °F - 33.8 °F 36% 29.86 in 10.0 mi West 19.6 mph 25.3 mph N/A   Clear
3:35 PM 60.8 °F - 33.8 °F 36% 29.86 in 10.0 mi West 15.0 mph 21.9 mph N/A   Clear
3:55 PM 60.8 °F - 33.8 °F 36% 29.86 in 10.0 mi WNW 11.5 mph 18.4 mph N/A   Clear
4:15 PM 60.8 °F - 33.8 °F 36% 29.86 in 10.0 mi WNW 13.8 mph 21.9 mph N/A   Clear
4:35 PM 60.8 °F - 33.8 °F 36% 29.86 in 10.0 mi WNW 16.1 mph - N/A   Clear
4:55 PM 60.8 °F - 33.8 °F 36% 29.86 in 10.0 mi WNW 15.0 mph 21.9 mph N/A   Clear
5:15 PM 59.0 °F - 33.8 °F 39% 29.86 in 10.0 mi WNW 15.0 mph 21.9 mph N/A   Clear
5:35 PM 57.2 °F - 33.8 °F 41% 29.86 in 10.0 mi WNW 6.9 mph 17.3 mph N/A   Clear
5:55 PM 57.2 °F - 37.4 °F 48% 29.87 in 10.0 mi WNW 10.4 mph - N/A   Clear
6:15 PM 55.4 °F - 37.4 °F 51% 29.88 in 10.0 mi WNW 9.2 mph - N/A   Clear
6:35 PM 53.6 °F - 39.2 °F 58% 29.89 in 10.0 mi WNW 10.4 mph - N/A   Clear
6:55 PM 51.8 °F - 39.2 °F 62% 29.90 in 10.0 mi WNW 12.7 mph - N/A   Clear
7:15 PM 51.8 °F - 41.0 °F 67% 29.90 in 10.0 mi WNW 15.0 mph - N/A   Clear
7:35 PM 51.8 °F - 41.0 °F 67% 29.91 in 10.0 mi WNW 17.3 mph 23.0 mph N/A   Clear
7:55 PM 50.0 °F - 41.0 °F 71% 29.93 in 10.0 mi NW 16.1 mph 26.5 mph N/A   Clear
8:15 PM 48.2 °F - 41.0 °F 76% 29.93 in 10.0 mi WNW 15.0 mph 24.2 mph N/A   Clear
8:35 PM 46.4 °F 41.1 °F 41.0 °F 81% 29.94 in 10.0 mi WNW 11.5 mph - N/A   Clear
8:55 PM 44.6 °F 39.2 °F 41.0 °F 87% 29.95 in 10.0 mi West 10.4 mph - N/A   Clear
9:15 PM 44.6 °F 38.4 °F 41.0 °F 87% 29.95 in 10.0 mi WNW 12.7 mph - N/A   Clear
9:35 PM 44.6 °F 38.4 °F 41.0 °F 87% 29.96 in 10.0 mi WNW 12.7 mph - N/A   Mostly Cloudy
9:55 PM 46.4 °F 38.7 °F 41.0 °F 81% 29.96 in 10.0 mi NW 20.7 mph 26.5 mph N/A   Overcast
10:15 PM 46.4 °F 39.0 °F 39.2 °F 76% 29.96 in 10.0 mi NW 19.6 mph - N/A   Overcast
10:35 PM 46.4 °F 39.2 °F 39.2 °F 76% 29.97 in 10.0 mi NW 18.4 mph 25.3 mph N/A   Overcast
10:55 PM 46.4 °F 38.5 °F 39.2 °F 76% 29.98 in 10.0 mi NW 21.9 mph 28.8 mph N/A   Overcast
11:15 PM 44.6 °F 37.2 °F 39.2 °F 81% 29.98 in 10.0 mi NW 17.3 mph 24.2 mph N/A   Overcast
11:35 PM 44.6 °F 36.6 °F 39.2 °F 81% 29.99 in 10.0 mi NW 19.6 mph 25.3 mph N/A   Overcast
11:55 PM 44.6 °F 36.6 °F 37.4 °F 76% 29.99 in 10.0 mi NW 19.6 mph 28.8 mph N/A   Overcast